TimeEDT,TemperatureF,Dew PointF,Humidity,Sea Level PressureIn,VisibilityMPH,Wind Direction,Wind SpeedMPH,Gust SpeedMPH,PrecipitationIn,Events,Conditions,WindDirDegrees,DateUTC
12:54 AM,63.0,52.0,67,30.09,10.0,South,11.5,-,N/A,,Clear,180,2013-04-10 04:54:00
1:54 AM,61.0,52.0,72,30.09,10.0,South,8.1,-,N/A,,Clear,190,2013-04-10 05:54:00
2:54 AM,60.1,51.1,72,30.07,10.0,Calm,Calm,-,N/A,,Clear,0,2013-04-10 06:54:00
3:54 AM,57.0,51.1,81,30.06,10.0,Calm,Calm,-,N/A,,Clear,0,2013-04-10 07:54:00
4:54 AM,54.0,50.0,86,30.06,10.0,NW,3.5,-,N/A,,Clear,320,2013-04-10 08:54:00
5:54 AM,52.0,48.9,89,30.07,10.0,Calm,Calm,-,N/A,,Clear,0,2013-04-10 09:54:00
6:54 AM,51.1,48.0,89,30.09,10.0,Calm,Calm,-,N/A,,Clear,0,2013-04-10 10:54:00
7:54 AM,50.0,48.9,96,30.11,8.0,Calm,Calm,-,N/A,,Clear,0,2013-04-10 11:54:00
8:54 AM,55.0,50.0,83,30.11,10.0,Calm,Calm,-,N/A,,Clear,0,2013-04-10 12:54:00
9:54 AM,64.9,52.0,63,30.10,10.0,Calm,Calm,-,N/A,,Clear,0,2013-04-10 13:54:00
10:54 AM,70.0,55.0,59,30.09,10.0,Calm,Calm,-,N/A,,Clear,0,2013-04-10 14:54:00
11:54 AM,75.0,53.1,46,30.09,10.0,Calm,Calm,-,N/A,,Clear,0,2013-04-10 15:54:00
12:54 PM,78.8,53.6,42,30.13,10.0,West,6.9,-,N/A,,Clear,280,2013-04-10 16:54:00
1:54 PM,81.0,52.0,36,30.03,10.0,SW,9.2,-,N/A,,Clear,220,2013-04-10 17:54:00
2:54 PM,82.9,53.1,36,30.01,10.0,SSE,10.4,-,N/A,,Clear,160,2013-04-10 18:54:00
3:54 PM,82.0,54.0,38,29.99,10.0,SSW,13.8,-,N/A,,Clear,200,2013-04-10 19:54:00
4:54 PM,82.0,53.1,37,29.97,10.0,South,12.7,-,N/A,,Clear,170,2013-04-10 20:54:00
5:54 PM,80.1,52.0,38,29.97,10.0,South,13.8,-,N/A,,Clear,180,2013-04-10 21:54:00
6:54 PM,77.0,54.0,45,29.97,10.0,South,15.0,-,N/A,,Clear,180,2013-04-10 22:54:00
7:54 PM,73.9,54.0,50,29.98,10.0,South,11.5,-,N/A,,Clear,190,2013-04-10 23:54:00
8:54 PM,69.1,54.0,58,29.98,10.0,SSE,8.1,-,N/A,,Clear,160,2013-04-11 00:54:00
9:54 PM,69.1,53.1,57,29.96,10.0,SSE,5.8,-,N/A,,Clear,150,2013-04-11 01:54:00
10:54 PM,66.9,53.1,61,29.94,10.0,Calm,Calm,-,N/A,,Clear,0,2013-04-11 02:54:00
11:54 PM,64.0,53.1,67,29.95,10.0,Calm,Calm,-,N/A,,Clear,0,2013-04-11 03:54:00